Globala väderstationer

Reklam
Mina Sidor
Isola Di Salina, Italien (16415): Temperatur & Daggpunkt: 11.10.2018 10:00:00 - 17.10.2018 10:00:00 (CEST)Isola Di Salina, Italien (16415): Vindhastighet: 11.10.2018 10:00:00 - 17.10.2018 10:00:00 (CEST)Isola Di Salina, Italien (16415): Vindriktning: 11.10.2018 10:00:00 - 17.10.2018 10:00:00 (CEST)Isola Di Salina, Italien (16415): Lufttrycket vid havsytans nivå: 11.10.2018 10:00:00 - 17.10.2018 10:00:00 (CEST)Isola Di Salina, Italien (16415): Nederbörd: 11.10.2018 10:00:00 - 17.10.2018 10:00:00 (CEST)
Datum & Tid tt [°C] td [°C] ff [m/s] ff [kn] dd ppp [hPa] rr [mm]
17.10.2018 10:00:00 22,6 21,4 0 0 N 1015,2 -
17.10.2018 09:00:00 21,7 20,6 0 0 N 1015,4 -
17.10.2018 08:00:00 19,7 18,5 0 0 N 1015,4 0,0
17.10.2018 07:00:00 19,6 18,6 0 0 N 1015,3 -
17.10.2018 06:00:00 19,7 18,5 0 0 N 1015,3 -
17.10.2018 05:00:00 19,9 18,1 0 0 N 1015,2 -
17.10.2018 04:00:00 20,1 18,7 0 0 N 1015,5 -
17.10.2018 03:00:00 20,1 18,5 0 0 N 1015,8 -
17.10.2018 02:00:00 20,2 18,6 0 0 N 1016,2 0,0
17.10.2018 01:00:00 20,0 18,2 0 0 N 1016,5 -
17.10.2018 00:00:00 20,6 18,8 0 0 N 1016,8 -
16.10.2018 23:00:00 20,9 18,0 0 0 N 1016,9 -
16.10.2018 22:00:00 21,2 17,3 0 0 N 1017,1 -
16.10.2018 21:00:00 21,5 16,6 0 0 N 1016,9 -
16.10.2018 20:00:00 21,1 17,4 0 0 N 1016,8 0,0
16.10.2018 19:00:00 20,8 17,3 0 0 N 1016,7 -
16.10.2018 18:00:00 21,3 19,0 0 0 N 1016,6 -
16.10.2018 17:00:00 21,6 18,3 0 0 N 1016,6 -
16.10.2018 16:00:00 22,6 18,7 0 0 N 1016,4 -
16.10.2018 15:00:00 23,4 20,9 0 0 N 1016,4 -
16.10.2018 14:00:00 22,9 20,2 0 0 N 1016,8 0,0
16.10.2018 13:00:00 23,3 21,5 0 0 N 1017,1 -
16.10.2018 12:00:00 22,5 20,9 0 0 N 1017,0 -
16.10.2018 11:00:00 22,4 21,0 0 0 N 1016,6 -
16.10.2018 10:00:00 21,9 21,0 0 0 N 1016,8 -
16.10.2018 09:00:00 20,1 19,2 0 0 N 1016,7 -
16.10.2018 08:00:00 18,5 17,6 0 0 N 1016,1 0,0
16.10.2018 07:00:00 18,2 17,0 0 0 N 1015,8 -
16.10.2018 06:00:00 18,3 16,9 0 0 N 1015,6 -
16.10.2018 05:00:00 18,3 16,9 0 0 N 1015,4 -
16.10.2018 04:00:00 18,1 16,5 0 0 N 1015,5 -
16.10.2018 03:00:00 18,7 17,3 0 0 N 1015,3 -
16.10.2018 02:00:00 18,9 17,5 0 0 N 1015,6 0,0
16.10.2018 01:00:00 19,2 17,8 0 0 N 1015,7 -
16.10.2018 00:00:00 19,5 18,1 0 0 N 1015,9 -
15.10.2018 23:00:00 19,7 18,3 0 0 N 1015,8 -
15.10.2018 22:00:00 19,8 18,2 0 0 N 1015,1 -
15.10.2018 21:00:00 20,0 18,4 0 0 N 1014,8 -
15.10.2018 20:00:00 19,8 18,6 0 0 N 1014,6 -
15.10.2018 19:00:00 20,1 19,0 0 0 N 1014,0 -
15.10.2018 18:00:00 20,3 19,2 0 0 N 1013,3 -
15.10.2018 17:00:00 20,6 19,4 0 0 N 1013,3 -
15.10.2018 16:00:00 21,3 20,1 0 0 N 1013,1 -
15.10.2018 15:00:00 21,1 19,9 0 0 N 1013,1 -
15.10.2018 14:00:00 21,1 19,9 0 0 N 1013,0 0,0
15.10.2018 13:00:00 21,1 19,9 0 0 N 1013,4 -
15.10.2018 12:00:00 21,1 19,9 0 0 N 1013,2 -
15.10.2018 11:00:00 20,4 19,5 0 0 N 1013,0 -
15.10.2018 10:00:00 19,3 18,4 0 0 N 1012,8 -
15.10.2018 09:00:00 18,4 18,0 0 0 N 1012,5 -
15.10.2018 08:00:00 18,2 17,8 0 0 N 1012,0 -
15.10.2018 07:00:00 18,2 17,8 0 0 N 1011,3 -
15.10.2018 06:00:00 18,0 17,9 0 0 N 1011,3 -
15.10.2018 05:00:00 17,9 17,8 0 0 N 1011,6 -
15.10.2018 04:00:00 17,5 17,4 0 0 N 1012,5 -
15.10.2018 03:00:00 17,4 17,2 0 0 N 1013,3 -
15.10.2018 02:00:00 17,7 17,5 0 0 N 1013,0 -
15.10.2018 01:00:00 18,0 17,5 0 0 N 1013,3 -
15.10.2018 00:00:00 18,3 17,8 0 0 N 1013,6 -
14.10.2018 23:00:00 18,1 17,6 0 0 N 1014,1 -
14.10.2018 22:00:00 18,0 17,6 0 0 N 1014,2 -
14.10.2018 21:00:00 17,6 17,2 0 0 N 1014,4 -
14.10.2018 20:00:00 17,3 16,8 0 0 N 1014,6 -
14.10.2018 19:00:00 17,2 16,5 0 0 N 1014,9 -
14.10.2018 18:00:00 17,9 17,0 0 0 N 1014,8 -
14.10.2018 17:00:00 18,1 16,9 0 0 N 1014,6 -
14.10.2018 16:00:00 18,9 17,5 0 0 N 1015,0 -
14.10.2018 15:00:00 18,8 17,6 0 0 N 1015,3 -
14.10.2018 14:00:00 18,0 16,6 0 0 N 1016,1 -
14.10.2018 13:00:00 18,5 16,9 0 0 N 1016,9 -
14.10.2018 12:00:00 19,8 17,1 0 0 N 1016,9 -
14.10.2018 11:00:00 20,1 17,4 0 0 N 1017,1 -
14.10.2018 10:00:00 19,9 17,4 0 0 N 1017,1 -
14.10.2018 09:00:00 19,9 18,0 0 0 N 1016,7 -
14.10.2018 08:00:00 19,6 16,6 0 0 N 1016,9 0,0
14.10.2018 07:00:00 19,3 17,0 0 0 N 1017,0 -
14.10.2018 06:00:00 19,3 17,6 0 0 N 1017,4 -
14.10.2018 05:00:00 19,2 17,1 0 0 N 1017,7 -
14.10.2018 04:00:00 19,4 17,5 0 0 N 1018,0 -
14.10.2018 03:00:00 19,5 17,8 0 0 N 1018,6 -
14.10.2018 02:00:00 19,4 17,5 0 0 N 1018,8 0,0
14.10.2018 01:00:00 19,3 17,2 0 0 N 1019,2 -
14.10.2018 00:00:00 19,5 16,7 0 0 N 1019,3 -
13.10.2018 23:00:00 19,8 16,8 0 0 N 1019,4 -
13.10.2018 22:00:00 20,2 18,4 0 0 N 1019,6 -
13.10.2018 21:00:00 20,2 18,4 0 0 N 1019,7 -
13.10.2018 20:00:00 20,3 17,4 0 0 N 1019,6 0,0
13.10.2018 19:00:00 20,3 16,1 0 0 N 1019,3 -
13.10.2018 18:00:00 20,3 15,0 2 4 OSO 1019,2 -
13.10.2018 17:00:00 20,6 15,5 2 4 OSO 1019,2 -
13.10.2018 16:00:00 21,6 15,8 4 7 SO 1019,4 -
13.10.2018 15:00:00 21,5 15,7 4 8 OSO 1019,6 -
13.10.2018 14:00:00 21,9 16,1 6 11 SO 1020,0 -
13.10.2018 13:00:00 21,7 15,9 5 10 OSO 1020,6 -
13.10.2018 12:00:00 21,6 16,0 6 12 SO 1021,0 -
13.10.2018 11:00:00 21,7 15,9 6 12 SO 1020,9 -
13.10.2018 10:00:00 21,1 15,8 6 12 SO 1020,8 -
13.10.2018 09:00:00 20,1 17,8 6 12 SO 1020,6 -
13.10.2018 08:00:00 19,2 17,5 7 13 SO 1020,2 0,0
13.10.2018 07:00:00 19,1 17,4 5 10 OSO 1019,9 -
13.10.2018 06:00:00 19,3 16,5 6 11 OSO 1020,2 -
13.10.2018 05:00:00 19,5 17,2 6 12 SO 1020,4 -
13.10.2018 04:00:00 19,6 16,6 7 13 SO 1020,5 -
13.10.2018 03:00:00 20,0 16,2 7 13 OSO 1020,6 -
13.10.2018 02:00:00 19,9 18,1 6 12 OSO 1020,9 0,0
13.10.2018 01:00:00 20,0 18,2 6 12 OSO 1021,0 -
13.10.2018 00:00:00 20,1 17,4 8 15 SO 1020,9 -
12.10.2018 23:00:00 20,1 18,3 8 15 SO 1021,2 -
12.10.2018 22:00:00 20,1 18,7 7 14 SO 1020,9 -
12.10.2018 21:00:00 20,1 18,3 6 12 SO 1020,9 -
12.10.2018 20:00:00 19,9 18,3 6 12 SO 1020,7 -
12.10.2018 19:00:00 20,1 18,0 7 13 SO 1020,2 -
12.10.2018 18:00:00 20,3 18,9 9 17 SO 1020,3 -
12.10.2018 17:00:00 20,7 19,5 6 11 OSO 1020,4 -
12.10.2018 16:00:00 20,7 19,3 4 8 SO 1020,7 -
12.10.2018 15:00:00 21,5 20,1 4 7 SO 1020,8 -
12.10.2018 14:00:00 21,3 19,5 1 3 S 1020,8 -
12.10.2018 13:00:00 20,8 19,9 2 4 S 1021,6 -
12.10.2018 12:00:00 19,8 19,1 0 0 N 1022,0 -
12.10.2018 11:00:00 18,9 18,2 0 0 N 1021,8 -
12.10.2018 10:00:00 19,0 18,1 3 6 NNV 1021,5 -
12.10.2018 09:00:00 20,2 18,8 6 11 NNV 1020,6 -
12.10.2018 08:00:00 19,7 18,8 0 0 N 1020,2 0,0
12.10.2018 07:00:00 20,0 18,9 0 0 N 1019,7 -
12.10.2018 06:00:00 20,0 18,2 0 0 N 1019,6 -
12.10.2018 05:00:00 19,8 18,1 0 0 N 1019,5 -
12.10.2018 04:00:00 19,7 17,8 0 0 N 1019,4 -
12.10.2018 03:00:00 19,7 18,8 0 0 N 1019,7 -
12.10.2018 02:00:00 19,9 19,0 0 0 N 1019,7 0,0
12.10.2018 01:00:00 20,0 18,9 0 0 N 1019,6 -
12.10.2018 00:00:00 19,7 18,5 0 0 N 1019,6 -
11.10.2018 23:00:00 19,5 17,9 0 0 N 1020,0 -
11.10.2018 22:00:00 20,1 19,0 1 2 S 1019,8 -
11.10.2018 21:00:00 20,3 19,1 0 0 N 1019,6 -
11.10.2018 20:00:00 20,3 18,7 0 0 N 1019,5 -
11.10.2018 19:00:00 20,8 18,5 0 0 N 1019,4 -
11.10.2018 18:00:00 21,7 17,8 0 0 N 1018,9 -
11.10.2018 17:00:00 22,5 17,6 0 0 N 1018,7 -
11.10.2018 16:00:00 23,3 18,5 1 2 SO 1018,8 -
11.10.2018 15:00:00 23,4 18,6 3 5 SO 1018,7 -
11.10.2018 14:00:00 23,2 18,9 4 7 SO 1018,9 0,0
11.10.2018 13:00:00 24,1 18,9 2 4 SO 1019,8 -
11.10.2018 12:00:00 24,2 19,4 1 2 SO 1020,4 -
11.10.2018 11:00:00 23,0 19,5 2 4 SSO 1020,3 -
11.10.2018 10:00:00 22,7 21,5 1 3 SSO 1020,2 -

tt = Temperatur
td = Daggpunkt
ff = Vindhastighet
dd = Vindriktning
ppp = Lufttrycket vid havsytans nivå
rr = Nederbörd

Väderstationer i närheten